Temp
-9 -9 -10 -10 -10 -10 -10 -10 -10 -10 -10 -10 -10 -10 -10 -11 -10 -11 -11 -11 -11 -11 -11 -12 -12 -12 -12 -12 -11 -11 -11 -11
-10 -10 -10 -10 -10 -10 -10 -11 -11 -10 -10 -10 -10 -11 -11 -11 -11 -11 -11 -11 -12 -12 -12 -12 -12 -12 -12 -12 -12 -12 -12 -11
-10 -10 -10 -10 -10 -10 -11 -11 -11 -11 -11 -11 -11 -11 -11 -11 -11 -11 -11 -12 -12 -12 -12 -12 -12 -12 -12 -12 -12 -12 -12 -12
-10 -10 -10 -10 -10 -11 -10 -11 -11 -11 -11 -11 -11 -11 -11 -11 -11 -11 -11 -12 -12 -12 -12 -12 -12 -12 -12 -12 -12 -12 -12 -12
-10 -10 -10 -10 -10 -10 -10 -10 -11 -11 -11 -11 -11 -11 -11 -11 -11 -11 -12 -12 -12 -12 -12 -13 -13 -13 -12 -12 -13 -13 -13 -13
-9 -9 -10 -10 -10 -10 -10 -10 -10 -11 -11 -11 -11 -11 -11 -11 -11 -11 -12 -12 -13 -13 -13 -13 -13 -13 -13 -13 -13 -13 -13 -13
-9 -9 -10 -10 -10 -10 -10 -10 -10 -11 -11 -11 -11 -11 -11 -11 -11 -12 -12 -12 -13 -13 -13 -13 -13 -13 -13 -13 -13 -13 -13 -13
-9 -9 -9 -9 -9 -10 -10 -10 -11 -10 -11 -11 -11 -11 -11 -11 -11 -12 -12 -12 -13 -13 -13 -13 -13 -14 -14 -13 -13 -13 -13 -14
-10 -9 -9 -9 -9 -9 -9 -10 -10 -10 -11 -11 -11 -11 -11 -12 -12 -12 -12 -12 -13 -13 -14 -14 -14 -14 -14 -14 -14 -14 -14 -14
-9 -9 -10 -10 -9 -9 -10 -10 -10 -10 -10 -11 -11 -11 -11 -11 -12 -12 -12 -12 -12 -13 -14 -14 -14 -14 -14 -14 -14 -14 -14 -14
-10 -9 -10 -10 -10 -9 -9 -10 -10 -10 -10 -11 -11 -12 -12 -12 -12 -12 -12 -12 -12 -13 -13 -14 -14 -14 -14 -14 -14 -15 -14 -14
-9 -9 -9 -10 -10 -10 -10 -10 -10 -10 -10 -10 -11 -12 -12 -12 -12 -12 -12 -12 -12 -13 -13 -14 -14 -14 -14 -14 -15 -14 -14 -15
-10 -10 -10 -10 -10 -10 -10 -11 -10 -10 -10 -11 -11 -11 -12 -12 -12 -12 -13 -13 -13 -13 -13 -13 -14 -14 -14 -15 -14 -14 -14 -15
-10 -10 -10 -10 -10 -10 -10 -10 -11 -11 -11 -10 -10 -11 -12 -12 -12 -12 -13 -13 -13 -13 -13 -13 -14 -14 -14 -14 -14 -14 -15 -15
-11 -11 -11 -11 -10 -11 -11 -11 -11 -11 -11 -12 -11 -12 -12 -12 -13 -13 -13 -13 -13 -14 -14 -13 -14 -14 -14 -14 -14 -15 -14 -14
-11 -11 -12 -11 -11 -11 -11 -11 -11 -11 -11 -12 -12 -12 -12 -11 -12 -13 -13 -13 -13 -14 -14 -14 -13 -14 -14 -14 -15 -14 -14 -14
-11 -11 -12 -13 -12 -12 -12 -12 -13 -13 -12 -12 -12 -13 -13 -13 -12 -13 -13 -13 -14 -14 -14 -14 -14 -14 -14 -15 -14 -14 -15 -14
-11 -12 -12 -12 -12 -12 -12 -12 -13 -13 -13 -13 -12 -13 -13 -14 -14 -13 -14 -14 -14 -14 -14 -14 -14 -14 -14 -14 -14 -14 -14 -14
-12 -12 -12 -12 -12 -13 -12 -12 -12 -12 -13 -13 -13 -13 -13 -14 -14 -14 -14 -14 -14 -14 -14 -14 -14 -14 -14 -14 -14 -14 -14 -15
-12 -11 -11 -12 -13 -14 -14 -13 -13 -13 -13 -13 -13 -14 -14 -14 -14 -14 -14 -14 -14 -14 -14 -14 -14 -14 -14 -14 -14 -15 -14 -15
Height
5841 5840 5839 5838 5838 5837 5836 5834 5834 5833 5832 5831 5830 5829 5829 5828 5827 5827 5827 5825 5824 5824 5824 5823 5823 5823 5823 5823 5823 5822 5821 5821
5836 5835 5834 5834 5832 5832 5831 5830 5829 5828 5827 5827 5826 5826 5825 5824 5824 5823 5823 5823 5821 5819 5820 5819 5819 5819 5819 5819 5818 5818 5817 5817
5830 5830 5829 5827 5825 5826 5826 5825 5825 5824 5823 5822 5821 5822 5821 5819 5819 5819 5818 5817 5817 5816 5815 5815 5815 5814 5814 5814 5814 5813 5814 5814
5823 5823 5823 5821 5820 5820 5819 5820 5819 5819 5818 5818 5817 5818 5816 5815 5814 5815 5814 5812 5812 5811 5810 5810 5810 5809 5808 5808 5808 5808 5810 5810
5816 5816 5816 5815 5815 5816 5815 5814 5814 5813 5813 5812 5812 5812 5810 5810 5809 5809 5809 5807 5807 5806 5806 5805 5805 5805 5804 5803 5803 5803 5804 5804
5811 5811 5811 5810 5809 5810 5809 5809 5808 5807 5807 5807 5806 5806 5806 5805 5805 5803 5803 5803 5803 5802 5801 5801 5800 5800 5800 5799 5798 5798 5799 5799
5805 5806 5805 5805 5804 5803 5802 5802 5801 5800 5800 5801 5800 5800 5801 5800 5799 5798 5797 5796 5796 5796 5796 5796 5795 5795 5794 5794 5793 5793 5793 5793
5800 5800 5799 5798 5797 5796 5796 5795 5795 5795 5794 5795 5793 5792 5793 5792 5792 5791 5791 5790 5790 5790 5790 5789 5789 5789 5788 5788 5788 5788 5788 5787
5795 5794 5794 5793 5792 5791 5790 5789 5787 5786 5786 5786 5786 5785 5785 5784 5785 5783 5783 5783 5783 5783 5783 5783 5783 5782 5783 5783 5782 5782 5782 5781
5787 5787 5785 5785 5784 5783 5782 5782 5781 5780 5779 5777 5777 5776 5777 5776 5776 5777 5775 5775 5775 5775 5775 5775 5775 5775 5775 5775 5775 5775 5775 5774
5781 5781 5780 5778 5776 5774 5774 5772 5772 5772 5771 5770 5767 5766 5766 5768 5767 5767 5768 5766 5766 5767 5766 5766 5766 5767 5767 5767 5767 5767 5767 5767
5773 5771 5770 5768 5768 5767 5766 5764 5763 5762 5763 5763 5760 5759 5758 5758 5757 5758 5758 5757 5757 5758 5757 5758 5758 5758 5758 5759 5758 5758 5758 5759
5766 5763 5760 5759 5757 5756 5755 5755 5753 5752 5751 5750 5750 5747 5747 5747 5746 5747 5747 5746 5747 5747 5747 5748 5748 5749 5749 5749 5749 5750 5750 5750
5755 5753 5750 5750 5747 5746 5744 5741 5740 5741 5740 5739 5739 5737 5736 5736 5734 5738 5737 5736 5737 5737 5737 5738 5737 5740 5739 5739 5739 5741 5742 5741
5742 5740 5738 5734 5738 5731 5730 5728 5728 5728 5727 5727 5728 5727 5724 5723 5721 5722 5724 5725 5726 5726 5726 5727 5727 5729 5728 5729 5728 5729 5731 5731
5728 5725 5722 5718 5718 5718 5714 5713 5713 5711 5711 5711 5711 5713 5713 5711 5709 5710 5710 5711 5714 5715 5714 5715 5716 5717 5717 5717 5719 5719 5718 5721
5715 5710 5706 5701 5696 5700 5697 5694 5694 5693 5694 5695 5695 5697 5699 5699 5697 5697 5699 5698 5702 5703 5703 5703 5704 5705 5705 5705 5706 5708 5706 5709
5696 5693 5688 5685 5679 5680 5677 5675 5674 5673 5674 5677 5677 5680 5681 5684 5684 5684 5685 5686 5688 5689 5690 5691 5692 5690 5692 5694 5694 5695 5694 5695
5673 5671 5668 5661 5656 5654 5656 5654 5650 5651 5654 5656 5658 5660 5663 5668 5671 5670 5672 5673 5675 5676 5676 5677 5679 5678 5681 5682 5681 5681 5682 5683
5640 5639 5639 5632 5629 5625 5623 5626 5624 5623 5626 5631 5636 5639 5643 5648 5653 5657 5656 5658 5661 5663 5662 5663 5665 5667 5666 5668 5670 5670 5670 5672
Wind_Speed
33 32 32 32 32 28 24 23 24 23 24 23 24 25 24 24 25 24 24 24 23 23 21 19 17 17 18 21 21 21 21 21
32 32 31 30 32 28 26 25 25 24 25 25 25 25 25 25 25 26 26 26 25 23 22 21 19 19 20 22 23 23 22 22
29 33 28 29 30 29 27 28 28 26 26 27 28 27 26 27 25 28 28 28 27 26 24 23 22 21 21 22 24 26 26 24
22 22 22 23 26 28 29 28 29 29 28 29 30 29 29 29 30 30 30 30 28 28 26 25 24 23 23 25 25 26 27 28
20 19 20 22 25 25 27 28 28 29 31 30 31 31 31 31 33 33 33 32 31 29 28 28 27 25 25 26 27 27 27 29
21 19 19 20 23 22 23 26 26 29 31 33 32 34 34 34 34 36 35 35 33 32 30 30 29 27 26 27 29 28 27 29
22 23 20 22 22 22 23 25 27 30 31 32 35 35 35 36 36 38 37 37 34 34 33 32 32 30 29 29 28 29 29 28
23 23 25 25 25 24 25 26 29 31 32 33 34 35 36 38 37 38 40 40 36 36 35 35 35 34 32 31 30 30 31 30
20 23 24 24 25 25 26 26 30 31 31 34 33 36 38 40 38 38 40 41 40 39 40 39 37 37 36 35 32 32 32 31
24 20 21 23 23 23 23 26 28 31 33 34 36 38 39 41 39 38 41 43 43 42 43 44 41 40 39 37 35 34 33 32
26 25 26 29 26 27 28 27 24 26 30 35 39 39 40 40 41 40 40 43 44 43 44 46 46 44 41 38 38 37 33 35
32 33 32 31 33 33 32 29 25 28 32 35 40 43 46 43 43 42 42 45 44 44 47 46 49 48 43 44 41 40 37 35
42 41 41 39 40 40 38 37 37 41 37 34 39 46 45 48 48 44 45 45 45 45 48 47 48 51 48 46 45 41 36 35
52 50 49 49 51 49 48 44 40 41 41 41 46 44 46 49 51 50 49 49 46 46 48 49 50 51 51 50 49 48 46 38
56 59 59 56 56 52 55 56 53 51 44 41 44 45 47 51 53 53 53 51 48 47 48 49 51 52 53 54 55 52 56 47
62 62 64 67 64 60 58 57 57 57 55 51 50 52 54 52 56 56 54 53 51 50 50 50 51 53 55 54 53 56 62 50
64 66 70 71 74 69 70 65 60 60 62 61 57 55 56 58 60 60 57 58 55 52 52 50 51 53 53 54 51 61 67 62
68 70 72 77 81 80 79 77 74 69 64 65 64 62 59 61 62 63 60 60 58 53 53 53 50 53 51 50 47 48 56 56
80 81 81 82 82 85 84 87 86 85 79 72 68 68 66 65 64 66 62 63 61 56 55 56 54 55 52 47 53 51 61 48
89 92 93 95 95 93 91 88 91 93 91 87 85 75 67 68 66 66 68 65 64 59 61 62 58 57 54 48 50 58 57 50
Wind_Direction
287 290 296 309 295 292 293 289 287 286 286 287 290 293 297 299 297 295 291 284 281 282 281 281 283 285 282 273 270 269 267 265
287 290 296 297 290 291 295 292 286 288 289 285 283 286 290 294 296 292 289 285 281 279 279 281 285 288 287 282 274 272 267 262
288 286 287 287 293 298 299 299 295 290 287 285 282 282 285 290 291 288 286 284 281 280 281 280 283 287 289 288 282 275 271 264
290 286 287 288 291 294 297 295 293 291 289 285 283 281 282 289 289 289 288 285 281 279 280 280 282 286 288 289 286 279 273 270
282 283 285 286 287 291 294 294 291 290 290 288 285 281 282 286 288 288 286 282 280 277 277 278 279 284 287 289 287 285 278 272
286 287 285 286 287 290 288 291 291 289 289 288 286 283 284 285 286 287 285 282 279 277 275 275 276 280 283 285 288 290 285 277
283 285 286 283 287 290 292 291 289 286 285 285 286 285 285 285 284 284 283 281 277 274 273 273 275 277 280 281 282 286 286 282
288 287 284 285 286 288 290 290 289 289 288 286 283 283 285 283 284 282 282 280 276 271 269 272 274 275 277 278 280 281 281 282
283 286 293 294 292 291 290 286 285 286 285 285 287 284 284 282 282 277 277 277 276 270 268 269 271 274 277 279 279 279 280 280
272 270 276 279 285 287 287 286 284 290 287 285 286 283 283 282 281 278 275 275 275 270 268 268 268 270 271 276 278 276 277 280
265 276 277 281 277 282 284 281 280 282 289 289 282 278 276 275 277 276 273 270 271 271 271 269 267 265 268 272 274 271 274 278
263 267 271 273 278 284 282 278 279 288 299 298 289 284 278 273 271 270 268 269 270 270 271 269 269 265 267 268 272 268 271 276
263 263 265 265 270 271 274 278 276 285 283 290 295 293 286 279 274 269 266 266 266 266 269 270 267 267 268 269 269 269 270 271
267 266 263 264 267 270 270 264 265 274 281 285 286 290 279 272 272 274 271 270 266 266 267 268 267 265 268 267 266 268 266 265
272 271 266 263 263 260 263 268 269 269 269 274 281 281 278 274 269 270 270 270 267 267 266 266 267 264 267 266 268 266 270 263
274 272 269 268 260 254 257 260 260 263 263 263 263 271 274 279 273 268 267 267 265 264 263 264 265 263 267 270 274 267 266 261
271 272 270 268 263 261 260 257 258 261 260 262 265 268 270 272 277 270 266 265 263 266 266 262 262 263 267 269 270 268 269 263
283 279 273 271 270 266 263 259 259 260 261 259 260 264 267 265 265 272 266 264 265 266 266 262 261 260 264 268 274 285 279 249
285 284 281 278 272 268 267 267 263 261 259 261 260 259 263 268 261 263 264 262 263 263 262 262 259 260 264 270 274 270 269 253
287 285 281 278 274 269 266 265 265 265 261 259 259 257 257 261 258 257 258 259 260 262 263 260 257 261 267 268 274 271 266 250